Location: Dackenheim
(49.5215°N, 8.1854°E)
Time: 02:43:39
(UTC+00:00)

AO-85 - Pass Details

Date: 19 March 2026
Orbit: 507 x 686 km, 64.8° (Epoch: 12 April)

Event Time Altitude Azimuth Distance (km) Brightness Sun altitude
Exits shadow 04:46:27 - 283° (WNW) 1,817 ? -8.3°
Reaches altitude 10° 04:46:40 10° 285° (WNW) 1,758 ? -8.3°
Maximum altitude 04:49:25 18° 330° (NNW) 1,309 ? -7.8°
Drops below altitude 10° 04:52:09 10° 15° (NNE) 1,735 ? -7.4°
Sets 04:54:52 0° 35° (NE) 2,620 ? -6.9°
